THOR ABLESTAR DEB, 1522

Orbit data source: Space-Track

THOR ABLESTAR DEB, 1522 is space debris in LEO originally from a launch on Fri, 13 Aug 1965 UTC launched from the Air Force Western Test Range (AFWTR). Debris objects in space refer to the collection of defunct objects orbiting the Earth. Examples of debris include non-operational satellites, rocket bodies, and fragments generated from explosions, collisions, or faulty payload assembly.

Loading next visibility...
Identifier
1522, 1965-065L
Orbit
LEO
Country
Flag of USUS
Related business
Manufacturer
Unknown
Mission
Spacecraft
Bus & Motor
Unknown
Mass
Unknown
Launch date (UTC)
1965-08-13 (60 years ago)
Launch vehicle
Unknown
Launch site
Air Force Western Test Range (AFWTR)
Object type
Payload
Rocket body
Debris
Shape & HBR
Unknown shape, 0.4 m
Radar Cross Section
Medium (>0.1 m² and <1 m²)

Expand to show TLE details & history
Last TLE update: 16 hours ago

TLE from 16 hours ago
0 THOR ABLESTAR DEB
1 01522U 65065L   25293.96244064  .00000082  00000-0  14590-3 0  9990
2 01522  90.0767 124.7559 0070366 198.1614 279.0440 13.33832343927902
Epoch: 2025-10-20T23:05Z
TLE epoch observation values (Epoch: 2025-10-20T23:05:54.871Z)
Latitude
63.67557°
Longitude
-71.22572°
Altitude
1,135.437 km
Speed
7.295 km/s
True Right ascension
20h 19m 38s
True Declination
63° 32' 44"
Sunlit
Object was in daylight at epoch
Visualization orbit readout
Latitude
Unknown
Longitude
Unknown
Altitude
Unknown
Speed
Unknown
Apparent Right ascension
Unknown
Apparent Declination
Unknown
Sunlit
N/A
Visualization observer readout
Local Sidereal Time
09:47:05
Azimuth
Unknown
Elevation
Unknown
Doppler factor
Unknown
Orbital elements
Apogee altitude
1,182.244 km
Perigee altitude
1,076.588 km
Semi-major axis
7,507.553 km
Eccentricity
0.00704
Inclination
90.0767°
RAAN
124.7559°
Arg. of periapsis
198.1614°
True anomaly
278.24661°
Mean anomaly
279.044°
Eccentric anomaly
278.64541°
Mean motion
3.33653 °/min
Orbital period
107.9 mins
BSTAR
0.0001459
Loading maneuver chart data...
Computing Atmospheric mass density...
Loading historical data...
Loading historical data...
Loading historical data...
Loading historical data...
Loading historical data...
Loading historical data...
Loading historical data...

Documentation

Showing up to 5 results
|